Sheringham Point, British Columbia

11:52 AM PDT on July 23, 2017 (GMT -0700)
Sheringham Point

Weather History for CWSP - December, 2012

Change the Weather History Date:

Saturday, December 29, 2012

  Actual Average Record
Temperature  
Mean Temperature 42 °F -  
Max Temperature 44 °F - - ()
Min Temperature 41 °F - - ()
Degree Days  
Heating Degree Days 22    
Moisture  
Dew Point 40 °F    
Average Humidity 88    
Maximum Humidity 97    
Minimum Humidity 73    
Precipitation  
Precipitation 0.04 in - - ()
Sea Level Pressure  
Sea Level Pressure 30.16 in    
Wind  
Wind Speed 12 mph ()    
Max Wind Speed 39 mph    
Max Gust Speed -    
T = Trace of Precipitation, MM = Missing Value Source: Averaged Metar Reports

Daily Weather History Graph

Daily Weather History Graph

Search for Another Location

Airport or City:

Trip Planner

Search our weather history database for the weather conditions in past years. The results will help you decide how hot, cold, wet, or windy it might be!

Date:

Astronomy

Dec. 29, 2012 Rise Set
Actual Time 8:07 AM PST 4:29 PM PST
Civil Twilight 7:30 AM PST 5:05 PM PST
Nautical Twilight 6:50 AM PST 5:45 PM PST
Astronomical Twilight 6:12 AM PST 6:23 PM PST
Moon 6:16 PM PST (12/29) 8:36 AM PST (12/29)
Length of Visible Light 9h 35m
Length of Day
8h 22m
Full, 98% of the Moon is Illuminated
Dec 29
Full
Jan 4
Last Quarter
Jan 11
New
Jan 18
First Quarter
Jan 26
Full

Hourly Weather History & Observations

Time (PST) Temp. Windchill Dew Point Humidity Pressure Visibility Wind Dir Wind Speed Gust Speed Precip Events Conditions
12:00 AM 43.0 °F 41.3 °F 37.4 °F 81% 30.14 in - North 3.5 mph - N/A   Unknown
1:00 AM 43.7 °F 39.7 °F 37.4 °F 78% 30.15 in - North 6.9 mph - N/A   Unknown
2:00 AM 43.0 °F - 38.8 °F 85% 30.16 in - North 2.3 mph - N/A   Unknown
3:00 AM 42.8 °F 38.0 °F 38.8 °F 86% 30.16 in - North 8.1 mph - N/A   Unknown
4:00 AM 44 °F - 38 °F 73% 30.15 in - Calm Calm - -  
4:00 AM 43.5 °F 39.4 °F 38.3 °F 82% 30.15 in - North 6.9 mph - N/A   Unknown
5:00 AM 43.2 °F 31.8 °F 38.7 °F 84% 30.16 in - North 36.8 mph - N/A   Unknown
6:00 AM 43.0 °F 37.7 °F 38.8 °F 85% 30.15 in - North 9.2 mph - N/A   Unknown
7:00 AM 43.0 °F 40.3 °F 39.2 °F 86% 30.15 in - North 4.6 mph - N/A   Unknown
8:00 AM 42.4 °F 30.5 °F 39.7 °F 90% 30.16 in - North 39.1 mph - N/A   Unknown
9:00 AM 42.1 °F 30.3 °F 40.5 °F 94% 30.17 in - North 36.8 mph - N/A   Unknown
10:00 AM 42 °F - 41 °F 95% 30.17 in - Calm Calm - -  
10:00 AM 42.1 °F 35.7 °F 41.0 °F 96% 30.17 in - North 11.5 mph - N/A   Unknown
12:00 PM 43.3 °F 32.7 °F 42.4 °F 97% 30.15 in - North 32.2 mph - N/A   Unknown
1:00 PM 43.5 °F 32.6 °F 42.4 °F 96% 30.14 in - North 34.5 mph - N/A   Unknown
2:00 PM 43.9 °F 33.6 °F 42.4 °F 95% 30.13 in - North 31.1 mph - N/A   Unknown
3:00 PM 44.1 °F 36.2 °F 42.4 °F 94% 30.14 in - North 18.4 mph - N/A   Unknown
4:00 PM 43 °F - 42 °F 95% 30.15 in - Calm Calm - -  
4:00 PM 43.3 °F 37.2 °F 42.1 °F 95% 30.15 in - North 11.5 mph - 0.05 in   Unknown
5:00 PM 43.3 °F 36.8 °F 41.2 °F 92% 30.16 in - North 12.7 mph - 0.02 in   Unknown
6:00 PM 42.1 °F 36.6 °F 39.7 °F 91% 30.16 in - North 9.2 mph - N/A   Unknown
7:00 PM 41.7 °F 36.7 °F 38.5 °F 88% 30.17 in - North 8.1 mph - N/A   Unknown
8:00 PM 41.4 °F 36.2 °F 38.5 °F 89% 30.19 in - North 8.1 mph - N/A   Unknown
9:00 PM 42.3 °F 36.8 °F 38.8 °F 88% 30.19 in - North 9.2 mph - N/A   Unknown
10:00 PM 42 °F - 38 °F 82% 30.20 in - Calm Calm - -  
10:00 PM 41.9 °F 36.3 °F 38.3 °F 87% 30.20 in - North 9.2 mph - N/A   Unknown
11:00 PM 41.5 °F 36.4 °F 36.9 °F 83% 30.22 in - North 8.1 mph - N/A   Unknown